Location: Strawberry
(45.6646°N, 111.9596°W)
Time: 20:34:37
(UTC+00:00)

Envisat - Pass Details

Date: 23 August 2022
Orbit: 764 x 765 km, 98.2° (Epoch: 27 September)

Event Time Altitude Azimuth Distance (km) Brightness Sun altitude
Rises 11:08:59 0° 22° (NNE) 3,242 7.2 -14.8°
Reaches altitude 10° 11:11:33 10° 33° (NNE) 2,310 6.6 -14.5°
Maximum altitude 11:16:03 31° 95° (E) 1,319 4.8 -13.8°
Drops below altitude 10° 11:20:31 10° 157° (SSE) 2,294 5.4 -13.1°
Sets 11:23:03 0° 168° (SSE) 3,215 6.0 -12.8°
